Location: Hylvaty SDH
(49.9612°N, 16.4057°E)
Time: 01:05:19
(UTC+01:00)

Transit 4A - Pass Details

Date: 10 August 2020
Orbit: 864 x 981 km, 66.8° (Epoch: 15 January)

Event Time Altitude Azimuth Distance (km) Brightness Sun altitude
Rises 14:37:09 0° 302° (WNW) 3,572 11.0 50.1°
Reaches altitude 10° 14:40:43 10° 323° (NW) 2,654 10.3 49.8°
Maximum altitude 14:44:33 17° 2° (N) 2,233 9.8 49.4°
Drops below altitude 10° 14:48:26 10° 40° (NE) 2,701 10.0 49.0°
Sets 14:52:07 0° 61° (ENE) 3,665 10.6 48.6°
